Boston, MA

5:34 AM EDT on October 22, 2017 (GMT -0400)
Logan International

Weather History for KBOS - June, 2013

Change the Weather History Date:

Friday, June 7, 2013

  Actual Average Record
Temperature  
Mean Temperature 57 °F 65 °F  
Max Temperature 58 °F 73 °F 97 °F (1999)
Min Temperature 55 °F 57 °F 45 °F (1932)
Degree Days  
Heating Degree Days 8 3  
Month to date heating degree days 11 24  
Since 1 June heating degree days 11 24  
Since 1 July heating degree days 5348 5650  
Cooling Degree Days 0 3  
Month to date cooling degree days 34 17  
Year to date cooling degree days 72 47  
Since 1 June cooling degree days 34 17  
Growing Degree Days 6 (Base 50)    
Moisture  
Dew Point 54 °F    
Average Humidity 92    
Maximum Humidity 100    
Minimum Humidity 83    
Precipitation  
Precipitation 3.07 in 0.15 in 3.07 in (2013)
Month to date precipitation 3.80 1.01  
Year to date precipitation 18.05 19.17  
Snow  
Snow 0.00 in 0.00 in 0.00 in (2001)
Month to date snowfall 0.0 0.0  
Since 1 June snowfall 0.0 0.0  
Since 1 July snowfall 63.4 43.8  
Snow Depth -    
Sea Level Pressure  
Sea Level Pressure 30.01 in    
Wind  
Wind Speed 12 mph (ENE)    
Max Wind Speed 22 mph    
Max Gust Speed 28 mph    
Visibility 5 miles    
Events Rain    
T = Trace of Precipitation, MM = Missing Value Source: NWS Daily Summary

Daily Weather History Graph

Daily Weather History Graph

Search for Another Location

Airport or City:

Trip Planner

Search our weather history database for the weather conditions in past years. The results will help you decide how hot, cold, wet, or windy it might be!

Date:

Astronomy

Jun. 07, 2013 Rise Set
Actual Time 5:07 AM EDT 8:18 PM EDT
Civil Twilight 4:33 AM EDT 8:53 PM EDT
Nautical Twilight 3:48 AM EDT 9:37 PM EDT
Astronomical Twilight 2:55 AM EDT 10:30 PM EDT
Moon 4:29 AM EDT (6/7) 7:28 PM EDT (6/7)
Length of Visible Light 16h 19m
Length of Day
15h 11m
Waning Crescent, 1% of the Moon is Illuminated
Jun 7
Waning Crescent
Jun 8
New
Jun 16
First Quarter
Jun 23
Full
Jun 30
Last Quarter

Hourly Weather History & Observations

Time (EDT) Temp. Dew Point Humidity Pressure Visibility Wind Dir Wind Speed Gust Speed Precip Events Conditions
12:54 AM 57.9 °F 53.1 °F 84% 30.12 in 10.0 mi ESE 8.1 mph - 0.02 in Rain Light Rain
1:54 AM 57.0 °F 54.0 °F 89% 30.10 in 10.0 mi East 10.4 mph - 0.03 in Rain Light Rain
2:54 AM 55.9 °F 54.0 °F 93% 30.09 in 10.0 mi East 9.2 mph - 0.00 in   Overcast
3:54 AM 55.9 °F 52.0 °F 87% 30.05 in 10.0 mi East 13.8 mph - N/A   Overcast
4:54 AM 55.9 °F 50.0 °F 80% 30.06 in 10.0 mi ESE 11.5 mph - N/A   Overcast
5:54 AM 55.9 °F 50.0 °F 80% 30.06 in 10.0 mi ESE 10.4 mph - 0.00 in Rain Light Rain
6:38 AM 55.4 °F 51.8 °F 88% 30.06 in 10.0 mi East 10.4 mph - 0.00 in Rain Light Rain
6:54 AM 55.9 °F 52.0 °F 87% 30.06 in 10.0 mi East 8.1 mph - 0.00 in Rain Light Rain
7:11 AM 55.4 °F 53.6 °F 94% 30.07 in 10.0 mi East 9.2 mph - 0.00 in Rain Light Rain
7:54 AM 55.9 °F 53.1 °F 90% 30.06 in 6.0 mi East 8.1 mph - 0.04 in Rain Rain
8:02 AM 55.4 °F 53.6 °F 94% 30.06 in 5.0 mi ENE 6.9 mph - 0.01 in Rain Rain
8:54 AM 55.9 °F 54.0 °F 93% 30.06 in 7.0 mi ENE 8.1 mph - 0.08 in Rain Light Rain
9:54 AM 55.9 °F 55.0 °F 97% 30.06 in 6.0 mi ENE 8.1 mph - 0.07 in Rain Light Rain
10:41 AM 57.2 °F 55.4 °F 94% 30.06 in 1.5 mi ENE 11.5 mph - 0.02 in Rain Light Rain
10:49 AM 57.2 °F 55.4 °F 94% 30.06 in 1.5 mi East 9.2 mph - 0.02 in Rain Light Rain
10:54 AM 57.0 °F 55.9 °F 96% 30.06 in 1.5 mi East 9.2 mph - 0.03 in Rain Rain
11:54 AM 57.0 °F 55.9 °F 96% 30.06 in 0.5 mi East 9.2 mph - 0.10 in Rain Rain
12:01 PM 57.2 °F 55.4 °F 94% 30.06 in 1.5 mi East 10.4 mph - 0.01 in Rain Light Rain
12:10 PM 57.2 °F 55.4 °F 94% 30.06 in 6.0 mi East 10.4 mph - 0.02 in Rain Light Rain
12:54 PM 57.0 °F 55.9 °F 96% 30.06 in 5.0 mi East 10.4 mph - 0.07 in Rain Light Rain
1:54 PM 57.0 °F 55.0 °F 93% 30.04 in 6.0 mi ENE 12.7 mph - 0.05 in Rain Light Rain
2:21 PM 57.2 °F 55.4 °F 94% 30.04 in 2.5 mi ENE 15.0 mph - 0.01 in Rain Rain
2:54 PM 57.0 °F 55.0 °F 93% 30.04 in 2.5 mi ENE 11.5 mph - 0.07 in Rain Rain
3:54 PM 55.9 °F 55.0 °F 97% 30.01 in 2.5 mi ENE 13.8 mph - 0.23 in Rain Rain
4:54 PM 55.9 °F 54.0 °F 93% 29.99 in 2.5 mi ENE 17.3 mph - 0.16 in Rain Rain
5:54 PM 55.0 °F 54.0 °F 96% 29.98 in 2.5 mi ENE 13.8 mph - 0.08 in Rain Rain
6:54 PM 55.0 °F 53.1 °F 93% 29.97 in 2.5 mi NE 12.7 mph - 0.20 in Rain Rain
7:41 PM 55.4 °F 53.6 °F 94% 29.95 in 1.5 mi ENE 13.8 mph - 0.16 in Rain Heavy Rain
7:51 PM 55.4 °F 53.6 °F 94% 29.93 in 2.5 mi NE 16.1 mph - 0.20 in Rain Heavy Rain
7:54 PM 55.0 °F 53.1 °F 93% 29.93 in 2.5 mi NE 17.3 mph - 0.21 in Rain Heavy Rain
8:54 PM 55.0 °F 53.1 °F 93% 29.90 in 2.5 mi NE 17.3 mph 25.3 mph 0.19 in Rain Heavy Rain
9:21 PM 55.4 °F 53.6 °F 94% 29.89 in 1.8 mi NE 19.6 mph 27.6 mph 0.30 in Rain Heavy Rain
9:31 PM 55.4 °F 53.6 °F 94% 29.89 in 2.5 mi NE 17.3 mph 23.0 mph 0.44 in Rain Heavy Rain
9:40 PM 55.4 °F 53.6 °F 94% 29.89 in 2.5 mi NE 18.4 mph - 0.52 in Rain Heavy Rain
9:54 PM 55.0 °F 53.1 °F 93% 29.90 in 2.0 mi NE 16.1 mph - 0.70 in Rain Heavy Rain
10:28 PM 55.4 °F 53.6 °F 94% 29.88 in 2.5 mi NE 18.4 mph - 0.24 in Rain Rain
10:54 PM 55.0 °F 53.1 °F 93% 29.86 in 2.5 mi NE 13.8 mph 24.2 mph 0.29 in Rain Light Rain
11:54 PM 55.0 °F 53.1 °F 93% 29.83 in 2.5 mi NNE 12.7 mph - 0.24 in Rain Light Rain